Weather History for KCNM - January, 2014

Change the Weather History Date:

Thursday, January 2, 2014

  Actual Average Record
Temperature  
Mean Temperature 38 °F -  
Max Temperature 51 °F 52 °F 77 °F (1997)
Min Temperature 25 °F 25 °F 0 °F (1979)
Degree Days  
Heating Degree Days 27    
Moisture  
Dew Point 25 °F    
Average Humidity 63    
Maximum Humidity 88    
Minimum Humidity 35    
Precipitation  
Precipitation 0.00 in - - ()
Sea Level Pressure  
Sea Level Pressure 30.34 in    
Wind  
Wind Speed 7 mph (South)    
Max Wind Speed 16 mph    
Max Gust Speed 21 mph    
Visibility 10 miles    
Events      
Averages and records for this station are not official NWS values.
T = Trace of Precipitation, MM = Missing Value Source: NWS Daily Summary

Daily Weather History Graph

Daily Weather History Graph

Search for Another Location

Airport or City:

Trip Planner

Search our weather history database for the weather conditions in past years. The results will help you decide how hot, cold, wet, or windy it might be!

Date:

Astronomy

Jan. 02, 2014 Rise Set
Actual Time 6:58 AM MST 5:03 PM MST
Civil Twilight 6:31 AM MST 5:30 PM MST
Nautical Twilight 6:01 AM MST 6:01 PM MST
Astronomical Twilight 5:31 AM MST 6:31 PM MST
Moon 7:48 AM MST (1/2) 6:56 PM MST (1/2)
Length of Visible Light 10h 59m
Length of Day
10h 05m
Waxing Crescent, 3% of the Moon is Illuminated
Jan 2
Waxing Crescent
Jan 7
First Quarter
Jan 15
Full
Jan 23
Last Quarter
Jan 30
New

Hourly Weather History & Observations

Time (MST) Temp. Windchill Dew Point Humidity Pressure Visibility Wind Dir Wind Speed Gust Speed Precip Events Conditions
12:53 AM 37.0 °F 33.3 °F 27.0 °F 67% 30.34 in 10.0 mi NE 4.6 mph - N/A   Clear
1:53 AM 30.9 °F 26.2 °F 25.0 °F 79% 30.37 in 10.0 mi NNW 4.6 mph - N/A   Clear
2:53 AM 30.0 °F 22.4 °F 26.1 °F 85% 30.38 in 10.0 mi WNW 8.1 mph - N/A   Clear
3:53 AM 28.0 °F 20.0 °F 24.1 °F 85% 30.39 in 10.0 mi WNW 8.1 mph - N/A   Clear
4:53 AM 28.0 °F 19.3 °F 24.1 °F 85% 30.40 in 10.0 mi West 9.2 mph - N/A   Clear
5:53 AM 26.1 °F 20.5 °F 23.0 °F 88% 30.44 in 10.0 mi West 4.6 mph - N/A   Clear
6:53 AM 25.0 °F 19.3 °F 21.9 °F 88% 30.44 in 10.0 mi West 4.6 mph - N/A   Clear
7:53 AM 28.9 °F 25.2 °F 25.0 °F 85% 30.44 in 10.0 mi WSW 3.5 mph - N/A   Clear
8:53 AM 36.0 °F - 27.0 °F 70% 30.44 in 10.0 mi Calm Calm - N/A   Clear
9:53 AM 37.9 °F - 27.0 °F 65% 30.44 in 10.0 mi Calm Calm - N/A   Clear
10:53 AM 43.0 °F 38.2 °F 26.1 °F 51% 30.41 in 10.0 mi SSE 8.1 mph - N/A   Clear
11:53 AM 45.0 °F 41.2 °F 25.0 °F 46% 30.37 in 10.0 mi SSE 6.9 mph - N/A   Clear
12:53 PM 48.0 °F - 24.1 °F 39% 30.31 in 10.0 mi SSE 13.8 mph - N/A   Clear
1:53 PM 50.0 °F - 23.0 °F 35% 30.29 in 10.0 mi SSE 11.5 mph 18.4 mph N/A   Clear
2:53 PM 51.1 °F - 24.1 °F 35% 30.27 in 10.0 mi SSE 15.0 mph 20.7 mph N/A   Clear
3:53 PM 50.0 °F - 24.1 °F 36% 30.27 in 10.0 mi SSE 16.1 mph - N/A   Clear
4:53 PM 46.0 °F 40.6 °F 24.1 °F 42% 30.27 in 10.0 mi SE 11.5 mph - N/A   Clear
5:53 PM 39.9 °F 34.5 °F 25.0 °F 55% 30.30 in 10.0 mi SSE 8.1 mph - N/A   Clear
6:53 PM 36.0 °F 29.6 °F 24.1 °F 62% 30.30 in 10.0 mi South 8.1 mph - N/A   Clear
7:53 PM 35.1 °F 28.6 °F 24.1 °F 64% 30.31 in 10.0 mi South 8.1 mph - N/A   Clear
8:53 PM 35.1 °F 27.9 °F 25.0 °F 67% 30.29 in 10.0 mi South 9.2 mph - N/A   Clear
9:53 PM 35.1 °F 31.0 °F 25.0 °F 67% 30.28 in 10.0 mi SSW 4.6 mph - N/A   Clear
10:53 PM 35.1 °F 30.1 °F 24.1 °F 64% 30.26 in 10.0 mi South 5.8 mph - N/A   Clear
11:53 PM 37.9 °F - 24.1 °F 57% 30.23 in 10.0 mi Calm Calm - N/A   Clear